Meteo Giornale » Osservazioni meteo Stati Uniti (USA) » Shelby

ore: 04:55 - Osservazioni Meteo Shelby
Lat. 35° 15' N Lon. 81° 36' W Alt. 258 metri s.l.m.

sereno

21 °C

Sereno

Temp. 24 Ore

19 °C

33 °C

Nord

0 Km/h

Dew point 20 °C

Umidità 94 %

Visibilità  10 Km

Il sole sorge alle ore 06:59

Il sole tramonta alle ore 19:53

Data e Ora Cielo e Fenomeni T °C DP °C Um. % Pres. hPa Vis. km Vento km/h
Oggi h: 04:55 sereno Sereno 21 20 94 1020 10 N 0
Oggi h: 04:35 sereno Sereno 22 21 94 1020 10 N 0
Oggi h: 04:15 sereno Sereno 22 21 94 1020 11 N 0
Oggi h: 03:55 sereno Sereno 22 21 94 1020 10 N 0
Oggi h: 03:35 sereno Sereno 22 21 94 1020 10 N 0
Oggi h: 03:15 sereno Sereno 21 21 100 1020 11 N 0
Oggi h: 02:55 sereno Sereno 22 21 94 1020 10 N 0
Oggi h: 02:35 sereno Sereno 22 21 94 1020 10 N 0
Oggi h: 02:15 sereno Sereno 22 21 94 1020 10 N 0
Oggi h: 01:55 sereno Sereno 22 21 94 1020 10 N 0
Oggi h: 01:35 sereno Sereno 23 21 88 1020 10 N 0
Oggi h: 01:15 sereno Sereno 22 21 94 1020 10 N 0
Oggi h: 00:55 sereno Sereno 23 21 88 1020 10 N 0
Oggi h: 00:35 sereno Sereno 23 21 88 1020 10 N 0
Oggi h: 00:15 sereno Sereno 24 22 88 1020 10 N 0
Ieri h: 23:50 sereno Sereno 23 21 88 1020 10 N 0
Ieri h: 23:35 sereno Sereno 23 21 88 1020 10 N 0
Ieri h: 23:15 sereno Sereno 23 21 88 1020 10 N 0
Ieri h: 22:55 sereno Sereno 25 21 78 1020 10 N 0
Ieri h: 22:35 sereno Sereno 25 21 78 1020 10 N 0
Ieri h: 22:15 sereno Sereno 24 21 83 1020 10 N 0
Ieri h: 21:55 sereno Sereno 25 21 78 1020 10 N 0
Ieri h: 21:35 sereno Sereno 25 21 78 1020 10 N 0
Ieri h: 21:15 sereno Sereno 25 21 78 1019 10 N 0
Ieri h: 20:55 sereno Sereno 26 21 73 1019 10 N 5.5
Ieri h: 20:35 sereno Sereno 26 21 73 1019 10 N 0
Ieri h: 20:15 sereno Sereno 26 21 73 1019 10 N 0
Ieri h: 19:55 sereno Sereno 27 21 69 1019 10 N 0
Ieri h: 19:35 sereno Sereno 28 21 65 1019 10 O/NO 7.4
Ieri h: 19:15 sereno Sereno 28 22 69 1019 10 N 0
Ieri h: 18:55 sereno Sereno 29 21 62 1019 10 N 5.5
Ieri h: 18:35 sereno Sereno 30 21 58 1019 10 N 5.5
Ieri h: 18:15 sereno Sereno 31 19 48 1019 10 O/NO 13
Ieri h: 17:55 sereno Sereno 32 20 49 1019 10 O 7.4
Ieri h: 17:35 nuvoloso Nuvoloso 31 19 48 1019 10 N 5.5
Ieri h: 17:15 molto_nuvoloso Molto Nuvoloso 32 18 43 1019 10 N 5.5
Ieri h: 16:55 molto_nuvoloso Molto Nuvoloso 32 19 46 1019 10 N 0
Ieri h: 16:35 nuvoloso Nuvoloso 33 18 41 1019 10 S/SO 7.4
Ieri h: 16:15 nuvoloso Nuvoloso 32 18 43 1019 10 S/SO 9.3
Ieri h: 15:55 sereno Sereno 33 18 41 1020 10 N 0
Ieri h: 15:35 sereno Sereno 32 18 43 1020 10 N 0
Ieri h: 15:15 sereno Sereno 32 19 46 1020 10 N 5.5
Ieri h: 14:55 sereno Sereno 32 19 46 1020 10 SO 7.4
Ieri h: 14:35 sereno Sereno 32 18 43 1020 10 N 5.5
Ieri h: 14:15 sereno Sereno 31 19 48 1021 10 S/SO 7.4
Ieri h: 13:55 sereno Sereno 31 19 48 1021 10 N 0
Ieri h: 13:35 sereno Sereno 31 20 52 1021 10 N 0
Ieri h: 13:15 sereno Sereno 30 21 58 1021 10 N 5.5
Ieri h: 12:55 sereno Sereno 30 20 55 1021 10 N 0
Ieri h: 12:35 sereno Sereno 29 21 62 1021 10 N 0
Ieri h: 12:15 sereno Sereno 29 21 62 1022 10 N 0
Ieri h: 11:55 sereno Sereno 28 21 65 1022 10 N 0
Ieri h: 11:35 sereno Sereno 28 22 69 1022 10 N 0
Ieri h: 11:15 sereno Sereno 27 22 74 1022 10 N 5.5
Ieri h: 10:55 sereno Sereno 27 22 74 1022 10 N 5.5
Ieri h: 10:35 sereno Sereno 26 22 78 1022 10 N 0
Ieri h: 10:15 sereno Sereno 26 22 78 1022 10 N 0
Ieri h: 09:55 sereno Sereno 25 21 78 1022 10 N 0
Ieri h: 09:35 sereno Sereno 24 21 83 1022 10 N 0
Ieri h: 09:15 sereno Sereno 23 21 88 1021 10 N 0
Ieri h: 08:55 sereno Sereno 23 21 88 1021 10 N 0
Ieri h: 08:35 sereno Sereno 22 20 88 1021 11 N 0
Ieri h: 08:15 sereno Sereno 21 20 94 1021 11 N 0
Ieri h: 07:55 sereno Sereno 20 19 93 1021 11 N 0
Ieri h: 07:35 sereno Sereno 19 19 100 1021 11 N 0
Ieri h: 07:15 foschia Foschia 19 18 93 1021 3 N 0
Ieri h: 06:55 foschia Foschia 19 19 100 1021 8 N 0
Ieri h: 06:35 foschia Foschia 19 18 93 1021 8 N 0
Ieri h: 06:15 sereno Sereno 20 19 93 1021 11 N 0
Ieri h: 05:55 sereno Sereno 19 18 93 1021 11 N 0
Ieri h: 05:35 sereno Sereno 20 19 93 1021 10 N 0